Regional Weather Roundup
Issued by NWS Sioux Falls, SD

Home | Current Version | Previous Version | Graphics & Text | Print | Product List | Glossary Off
Versions: 1 2 3 4 5 6 7 8 9 10 11 12 13 14 15 16 17 18 19 20 21 22 23 24 25 26 27 28 29 30 31 32 33 34 35 36 37 38 39 40 41 42 43 44 45 46 47 48 49 50

624
ASUS43 KFSD 250010
RWRFSD

WEATHER ROUNDUP FOR SE SOUTH DAKOTA/SW MINNESOTA/NW IOWA
NATIONAL WEATHER SERVICE SIOUX FALLS SD
700 PM CDT SUN JUL 24 2016

NOTE: "FAIR" INDICATES FEW OR NO CLOUDS BELOW 12,000 FEET WITH NO
SIGNIFICANT WEATHER AND OR OBSTRUCTIONS TO VISIBILITY.


SDZ038>040-050-052>070-250100-
SOUTHEAST SOUTH DAKOTA

CITY           SKY/WX    TMP DP  RH WIND       PRES   REMARKS
BROOKINGS      SUNNY     78  63  59 NW10      30.03S
CHAMBERLAIN    SUNNY     85  53  33 CALM      30.05S
6HR MIN TEMP:  78; 6HR MAX TEMP:  86;

HURON          SUNNY     83  58  42 E5        30.02S
6HR MIN TEMP:  73; 6HR MAX TEMP:  86; 6HR PCP: TRACE;

MADISON        FAIR      75  63  64 NW7       30.05S
MITCHELL       SUNNY     81  57  43 N3        30.04S
6HR MIN TEMP:  73; 6HR MAX TEMP:  82; 6HR PCP:  0.01;

SIOUX FALLS    MOSUNNY   78  63  59 N9        30.03F
6HR MIN TEMP:  74; 6HR MAX TEMP:  79; 6HR PCP: TRACE;

WINNER         FAIR      87  46  24 N3        30.07R
YANKTON        MOSUNNY   79  57  47 N6        30.02F
$$

MNZ071-072-080-081-089-090-097-098-250100-
SOUTHWEST MINNESOTA

CITY           SKY/WX    TMP DP  RH WIND       PRES   REMARKS
FAIRMONT       CLOUDY    75  54  46 W9        29.99R
JACKSON        PTSUNNY   77  63  61 W8        30.02S
LUVERNE        PTSUNNY   77  61  57 NW6       30.04R
MARSHALL       SUNNY     80  63  55 NW10      30.00S
6HR MIN TEMP:  76; 6HR MAX TEMP:  81;

MONTEVIDEO     SUNNY     82  63  51 NW7       29.99F
REDWOOD FALLS  SUNNY     80  64  58 NW10      29.97F
TRACY          SUNNY     79  65  61 NW7       30.01S
WINDOM         MOSUNNY   77  64  65 W8        30.01R
WORTHINGTON    CLOUDY    76  64  66 NW7       30.04R
$$

IAZ001>003-012>014-020>022-031-032-NEZ013-014-SDZ071-250100-
NORTHWEST IOWA

CITY           SKY/WX    TMP DP  RH WIND       PRES   REMARKS
CHEROKEE       CLOUDY    75  64  69 NW8       30.04R
ESTHERVILLE    CLOUDY    74  68  81 W7        30.01S
LE MARS        CLOUDY    79  64  61 NW6       30.04S
SHELDON        CLOUDY    75  66  73 CALM      30.02F
SIOUX CITY     CLOUDY    80  64  58 N10       30.02R
6HR MIN TEMP:  80; 6HR MAX TEMP:  90;

SPENCER        CLOUDY    75  64  68 NW7       30.03S
6HR MIN TEMP:  75; 6HR MAX TEMP:  83; 6HR PCP: TRACE;

STORM LAKE     CLOUDY    77  68  73 NW9       30.04S
$$

ABBREVIATIONS USED IN REMARKS
   TC - TEMPERATURE IN CELSIUS
  WCI - WIND CHILL INDEX
   HX - HEAT INDEX
  VSB - VISIBILITY





USA.gov is the U.S. government's official web portal to all federal, state and local government web resources and services.